| time (UTC) | temp F | wind direction | speed knots | gust knots | rain 1hr in | rain 24hr in | rain mn in | humidity % | barometer mb |
| 20260503071549 | 70 | 108 | 0.9 | 2.6 | 0.00 | 0.87 | 0.00 | 92 | 1017.9 |
| 20260503070104 | 71 | 161 | 0.9 | 2.6 | 0.00 | 0.87 | 0.00 | 93 | 1018.1 |
| 20260503054549 | 72 | 111 | 0.0 | 1.7 | 0.00 | 0.87 | 0.00 | 93 | 1018.7 |
| 20260503053051 | 73 | 0 | 0.0 | 1.7 | 0.00 | 0.87 | 0.00 | 94 | 1018.7 |
| 20260503051551 | 73 | 113 | 1.7 | 3.5 | 0.00 | 0.87 | 0.00 | 94 | 1018.7 |
| 20260503050055 | 74 | 105 | 0.9 | 2.6 | 0.00 | 0.87 | 0.00 | 94 | 1018.9 |
| 20260503044553 | 74 | 115 | 0.9 | 2.6 | 0.00 | 0.87 | 0.00 | 94 | 1018.9 |
| 20260503043051 | 74 | 94 | 0.9 | 1.7 | 0.00 | 0.87 | 0.00 | 94 | 1019.1 |
| 20260503041604 | 75 | 0 | 0.0 | 0.0 | 0.00 | 0.87 | 0.00 | 95 | 1019.1 |
| 20260503040058 | 75 | 0 | 0.0 | 0.0 | 0.00 | 0.87 | 0.00 | 94 | 1019.2 |
| 20260503034605 | 75 | 0 | 0.0 | 0.0 | 0.00 | 0.87 | 0.87 | 95 | 1019.4 |
| 20260503033057 | 75 | 0 | 0.0 | 0.0 | 0.00 | 0.87 | 0.87 | 94 | 1019.4 |
| 20260503031555 | 75 | 0 | 0.0 | 0.0 | 0.00 | 0.87 | 0.87 | 94 | 1019.3 |
| 20260503030056 | 75 | 0 | 0.0 | 2.6 | 0.00 | 0.87 | 0.87 | 95 | 1019.2 |
| 20260503024555 | 75 | 150 | 1.7 | 3.5 | 0.00 | 0.87 | 0.87 | 94 | 1019.2 |
| 20260503023051 | 75 | 113 | 0.9 | 2.6 | 0.00 | 0.87 | 0.87 | 94 | 1019.1 |
| 20260503021552 | 75 | 0 | 0.0 | 0.0 | 0.00 | 0.87 | 0.87 | 94 | 1018.9 |
| 20260503020048 | 75 | 0 | 0.0 | 0.0 | 0.00 | 0.87 | 0.87 | 94 | 1018.9 |
| 20260503014552 | 75 | 0 | 0.0 | 1.7 | 0.00 | 0.87 | 0.87 | 94 | 1018.8 |
| 20260503013048 | 76 | 114 | 0.9 | 2.6 | 0.00 | 0.87 | 0.87 | 94 | 1018.6 |
| 20260503011552 | 76 | 0 | 0.0 | 1.7 | 0.00 | 0.87 | 0.87 | 95 | 1018.5 |
| 20260503010050 | 76 | 0 | 0.0 | 1.7 | 0.00 | 0.87 | 0.87 | 94 | 1018.2 |
| 20260503004549 | 76 | 0 | 0.0 | 1.7 | 0.00 | 0.87 | 0.87 | 94 | 1017.9 |
| 20260503003048 | 76 | 0 | 0.0 | 1.7 | 0.00 | 0.87 | 0.87 | 94 | 1017.8 |
| 20260503001551 | 76 | 0 | 0.0 | 1.7 | 0.00 | 0.87 | 0.87 | 94 | 1017.6 |
| 20260503000054 | 76 | 191 | 0.0 | 1.7 | 0.01 | 0.87 | 0.87 | 94 | 1017.6 |
| 20260502234551 | 76 | 188 | 0.0 | 1.7 | 0.02 | 0.87 | 0.87 | 94 | 1017.4 |
| 20260502233054 | 76 | 194 | 0.0 | 1.7 | 0.06 | 0.87 | 0.87 | 94 | 1017.3 |
| 20260502231602 | 76 | 190 | 0.9 | 2.6 | 0.50 | 0.87 | 0.87 | 94 | 1017.1 |
| 20260502230050 | 76 | 238 | 0.9 | 2.6 | 0.70 | 0.86 | 0.86 | 94 | 1016.9 |
| 20260502224551 | 76 | 178 | 2.6 | 6.1 | 0.69 | 0.85 | 0.85 | 93 | 1016.8 |
| 20260502223054 | 76 | 272 | 6.1 | 9.6 | 0.65 | 0.81 | 0.81 | 93 | 1016.7 |
| 20260502221556 | 77 | 251 | 1.7 | 5.2 | 0.20 | 0.36 | 0.36 | 90 | 1016.9 |
| 20260502214555 | 80 | 219 | 0.9 | 1.7 | 0.00 | 0.16 | 0.16 | 90 | 1016.3 |
| 20260502213055 | 80 | 21 | 2.6 | 4.3 | 0.00 | 0.16 | 0.16 | 89 | 1016.1 |
| 20260502211553 | 80 | 236 | 0.9 | 7.0 | 0.16 | 0.16 | 0.16 | 91 | 1016.0 |
| 20260502210105 | 80 | 304 | 3.5 | 12.2 | 0.15 | 0.15 | 0.15 | 89 | 1016.0 |
| 20260502204552 | 83 | 11 | 7.0 | 12.2 | 0.00 | 0.00 | 0.00 | 80 | 1015.9 |
| 20260502203056 | 83 | 29 | 5.2 | 14.8 | 0.00 | 0.00 | 0.00 | 79 | 1015.9 |
| 20260502201603 | 84 | 360 | 5.2 | 12.2 | 0.00 | 0.00 | 0.00 | 78 | 1015.9 |
| 20260502194559 | 85 | 348 | 6.1 | 11.3 | 0.00 | 0.00 | 0.00 | 75 | 1016.0 |
| 20260502193100 | 86 | 9 | 7.0 | 11.3 | 0.00 | 0.00 | 0.00 | 72 | 1016.2 |
| 20260502191558 | 87 | 19 | 7.0 | 9.6 | 0.00 | 0.00 | 0.00 | 68 | 1016.2 |
| 20260502184559 | 86 | 323 | 7.8 | 11.3 | 0.00 | 0.00 | 0.00 | 68 | 1016.3 |
| 20260502183051 | 87 | 261 | 7.0 | 11.3 | 0.00 | 0.00 | 0.00 | 66 | 1016.3 |
| 20260502181552 | 87 | 292 | 5.2 | 9.6 | 0.00 | 0.00 | 0.00 | 66 | 1016.4 |
| 20260502180120 | 87 | 286 | 6.1 | 10.4 | 0.00 | 0.00 | 0.00 | 67 | 1016.6 |
| 20260502163048 | 88 | 305 | 7.0 | 11.3 | 0.00 | 0.00 | 0.00 | 58 | 1017.4 |
| 20260502161601 | 91 | 242 | 0.9 | 6.1 | 0.00 | 0.00 | 0.00 | 55 | 1017.6 |
| 20260502151606 | 88 | 174 | 1.7 | 8.7 | 0.00 | 0.00 | 0.00 | 61 | 1018.3 |
| 20260502130104 | 82 | 0 | 0.9 | 3.5 | 0.00 | 0.00 | 0.00 | 70 | 1018.5 |
| 20260502123055 | 80 | 98 | 0.9 | 3.5 | 0.00 | 0.00 | 0.00 | 78 | 1018.2 |
| 20260502121602 | 79 | 37 | 0.9 | 2.6 | 0.00 | 0.00 | 0.00 | 82 | 1017.9 |
| 20260502114549 | 76 | 119 | 0.9 | 2.6 | 0.00 | 0.00 | 0.00 | 85 | 1017.8 |
| 20260502113049 | 75 | 144 | 1.7 | 3.5 | 0.00 | 0.00 | 0.00 | 87 | 1017.6 |
| 20260502111557 | 74 | 103 | 0.9 | 2.6 | 0.00 | 0.00 | 0.00 | 89 | 1017.5 |
| 20260502110053 | 73 | 55 | 1.7 | 2.6 | 0.00 | 0.00 | 0.00 | 91 | 1017.3 |
| 20260502104554 | 72 | 134 | 0.9 | 2.6 | 0.00 | 0.00 | 0.00 | 93 | 1017.1 |
| 20260502103100 | 72 | 103 | 1.7 | 2.6 | 0.00 | 0.00 | 0.00 | 94 | 1017.0 |
| 20260502101609 | 72 | 111 | 1.7 | 3.5 | 0.00 | 0.00 | 0.00 | 93 | 1016.8 |
| 20260502100108 | 72 | 132 | 0.9 | 1.7 | 0.00 | 0.00 | 0.00 | 93 | 1016.8 |
| 20260502080105 | 73 | 80 | 0.9 | 2.6 | 0.00 | 0.00 | 0.00 | 93 | 1016.1 |